New Philadelphia, OH

12:25 AM EST on February 22, 2017 (GMT -0500)
Clever

Weather History for KPHD - April, 2013

Change the Weather History Date:

Saturday, April 13, 2013

  Actual Average Record
Temperature  
Mean Temperature 41 °F 50 °F  
Max Temperature 49 °F 63 °F 83 °F (1977)
Min Temperature 33 °F 38 °F 21 °F (1976)
Degree Days  
Heating Degree Days 24 15  
Month to date heating degree days 218 221  
Since 1 July heating degree days 5235 5207  
Cooling Degree Days 0 0  
Month to date cooling degree days 5 0  
Year to date cooling degree days 5 1  
Moisture  
Dew Point 32 °F    
Average Humidity 66    
Maximum Humidity 82    
Minimum Humidity 50    
Precipitation  
Precipitation 0.00 in 0.12 in 1.00 in (1981)
Month to date precipitation 1.24 1.46  
Year to date precipitation 6.03 9.46  
Sea Level Pressure  
Sea Level Pressure 29.96 in    
Wind  
Wind Speed 7 mph (West)    
Max Wind Speed 16 mph    
Max Gust Speed 30 mph    
Visibility 10 miles    
Events      
T = Trace of Precipitation, MM = Missing Value Source: NWS Daily Summary

Daily Weather History Graph

Daily Weather History Graph

Search for Another Location

Airport or City:

Trip Planner

Search our weather history database for the weather conditions in past years. The results will help you decide how hot, cold, wet, or windy it might be!

Date:

Astronomy

Apr. 13, 2013 Rise Set
Actual Time 6:49 AM EDT 8:02 PM EDT
Civil Twilight 6:21 AM EDT 8:31 PM EDT
Nautical Twilight 5:48 AM EDT 9:04 PM EDT
Astronomical Twilight 5:12 AM EDT 9:40 PM EDT
Moon 8:39 AM EDT (4/13) 11:26 PM EDT (4/13)
Length of Visible Light 14h 09m
Length of Day
13h 13m
Waxing Crescent, 10% of the Moon is Illuminated
Apr 13
Waxing Crescent
Apr 18
First Quarter
Apr 25
Full
May 2
Last Quarter
May 9
New

Hourly Weather History & Observations

Time (EDT) Temp. Windchill Dew Point Humidity Pressure Visibility Wind Dir Wind Speed Gust Speed Precip Events Conditions
12:53 AM 42.1 °F 39.2 °F 33.1 °F 70% 29.91 in 10.0 mi WSW 4.6 mph - N/A   Overcast
1:53 AM 42.1 °F 39.2 °F 30.9 °F 65% 29.92 in 10.0 mi WSW 4.6 mph - N/A   Overcast
2:53 AM 42.1 °F 39.2 °F 32.0 °F 67% 29.91 in 10.0 mi WSW 4.6 mph - N/A   Overcast
3:53 AM 41.0 °F 38.0 °F 32.0 °F 70% 29.92 in 10.0 mi WSW 4.6 mph - N/A   Overcast
4:53 AM 42.1 °F 40.2 °F 33.1 °F 70% 29.91 in 10.0 mi West 3.5 mph - N/A   Overcast
5:11 AM 42.8 °F 41.1 °F 33.8 °F 70% 29.90 in 10.0 mi West 3.5 mph - N/A   Overcast
5:33 AM 42.8 °F 40.1 °F 33.8 °F 70% 29.89 in 10.0 mi West 4.6 mph - N/A   Overcast
5:53 AM 42.1 °F 38.4 °F 33.1 °F 70% 29.91 in 10.0 mi WSW 5.8 mph - N/A   Overcast
6:53 AM 42.1 °F 37.7 °F 30.9 °F 65% 29.91 in 10.0 mi West 6.9 mph - N/A   Overcast
7:53 AM 39.9 °F 33.4 °F 30.9 °F 70% 29.94 in 10.0 mi WNW 10.4 mph - N/A   Overcast
8:24 AM 39.2 °F 35.9 °F 30.2 °F 70% 29.93 in 10.0 mi West 4.6 mph - N/A   Overcast
8:53 AM 39.9 °F 35.8 °F 30.9 °F 70% 29.95 in 10.0 mi WNW 5.8 mph - N/A   Overcast
9:53 AM 41.0 °F 37.1 °F 32.0 °F 70% 29.95 in 10.0 mi Variable 5.8 mph - N/A   Overcast
10:09 AM 41.0 °F 39.0 °F 33.8 °F 76% 29.93 in 10.0 mi Variable 3.5 mph - N/A   Overcast
10:53 AM 41.0 °F 36.4 °F 34.0 °F 76% 29.96 in 10.0 mi NW 6.9 mph - N/A   Overcast
11:32 AM 42.8 °F 41.1 °F 33.8 °F 70% 29.95 in 10.0 mi West 3.5 mph - N/A   Overcast
11:53 AM 43.0 °F 38.2 °F 33.1 °F 68% 29.97 in 10.0 mi SSW 8.1 mph - N/A   Overcast
12:53 PM 44.1 °F 38.1 °F 30.0 °F 58% 29.98 in 10.0 mi WSW 11.5 mph 21.9 mph N/A   Overcast
1:53 PM 46.0 °F 40.6 °F 30.9 °F 56% 29.96 in 10.0 mi WSW 11.5 mph 21.9 mph N/A   Overcast
2:53 PM 46.9 °F - 30.9 °F 54% 29.96 in 10.0 mi WSW 8.1 mph 21.9 mph N/A   Overcast
3:53 PM 48.0 °F - 30.9 °F 52% 29.96 in 10.0 mi WSW 16.1 mph 24.2 mph N/A   Overcast
4:53 PM 48.0 °F - 30.9 °F 52% 29.97 in 10.0 mi West 11.5 mph 18.4 mph N/A   Overcast
5:53 PM 48.0 °F - 32.0 °F 54% 29.96 in 10.0 mi WSW 6.9 mph - N/A   Overcast
6:53 PM 48.9 °F - 33.1 °F 54% 29.97 in 10.0 mi West 6.9 mph - N/A   Overcast
7:53 PM 46.9 °F - 33.1 °F 59% 29.99 in 10.0 mi WNW 9.2 mph - N/A   Overcast
8:53 PM 43.0 °F 37.7 °F 34.0 °F 71% 30.02 in 10.0 mi NW 9.2 mph - N/A   Mostly Cloudy
9:53 PM 41.0 °F 35.8 °F 30.9 °F 67% 30.04 in 10.0 mi WNW 8.1 mph - N/A   Clear
10:53 PM 39.0 °F 36.8 °F 30.9 °F 73% 30.06 in 10.0 mi Variable 3.5 mph - N/A   Clear
11:53 PM 35.1 °F - 30.0 °F 82% 30.08 in 10.0 mi Calm Calm - N/A   Clear